Change the Weather History Date:

Wednesday, May 9, 2012

  Actual Average Record
Temperature  
Mean Temperature 68 °F 68 °F  
Max Temperature 79 °F 80 °F 93 °F (1936)
Min Temperature 56 °F 57 °F 38 °F (1923)
Degree Days  
Heating Degree Days 0 1  
Month to date heating degree days 0 14  
Since 1 July heating degree days 2339 2988  
Cooling Degree Days 3 5  
Month to date cooling degree days 79 35  
Year to date cooling degree days 254 107  
Growing Degree Days 18 (Base 50)    
Moisture  
Dew Point 52 °F    
Average Humidity 58    
Maximum Humidity 84    
Minimum Humidity 31    
Precipitation  
Precipitation 0.06 in 0.17 in 1.10 in (1909)
Month to date precipitation 0.99 1.56  
Year to date precipitation 18.84 20.82  
Snow  
Snow 0.00 in - - ()
Month to date snowfall 0.0  
Since 1 July snowfall T  
Snow Depth 0.00 in    
Sea Level Pressure  
Sea Level Pressure 29.89 in    
Wind  
Wind Speed 7 mph (North)    
Max Wind Speed 17 mph    
Max Gust Speed 22 mph    
Visibility 10 miles    
Events Rain    
T = Trace of Precipitation, MM = Missing Value Source: NWS Daily Summary

Daily Weather History Graph

Daily Weather History Graph

Search for Another Location

Airport or City:

Trip Planner

Search our weather history database for the weather conditions in past years. The results will help you decide how hot, cold, wet, or windy it might be!

Date:

Astronomy

May. 09, 2012 Rise Set
Actual Time 5:48 AM CDT 7:38 PM CDT
Civil Twilight 5:21 AM CDT 8:06 PM CDT
Nautical Twilight 4:48 AM CDT 8:39 PM CDT
Astronomical Twilight 4:12 AM CDT 9:15 PM CDT
Moon 11:36 PM CDT (5/9) 9:06 AM CDT (5/9)
Length of Visible Light 14h 45m
Length of Day
13h 50m
Waning Gibbous, 82% of the Moon is Illuminated
May 9
Waning Gibbous
May 12
Last Quarter
May 20
New
May 28
First Quarter
Jun 4
Full

Hourly Weather History & Observations

Time (CDT) Temp. Dew Point Humidity Pressure Visibility Wind Dir Wind Speed Gust Speed Precip Events Conditions
12:53 AM 70.0 °F 59.0 °F 68% 29.89 in 10.0 mi Calm Calm - 0.00 in   Overcast
1:53 AM 69.1 °F 59.0 °F 70% 29.87 in 10.0 mi NNE 4.6 mph - N/A   Overcast
2:53 AM 68.0 °F 60.1 °F 76% 29.87 in 10.0 mi NNW 5.8 mph - N/A   Overcast
3:53 AM 68.0 °F 57.9 °F 70% 29.87 in 10.0 mi North 9.2 mph - N/A   Overcast
4:53 AM 66.0 °F 55.0 °F 68% 29.88 in 10.0 mi North 10.4 mph 21.9 mph 0.00 in Rain Light Rain
5:53 AM 62.1 °F 55.9 °F 80% 29.91 in 10.0 mi North 9.2 mph - 0.00 in Rain Light Rain
6:53 AM 61.0 °F 55.9 °F 83% 29.92 in 10.0 mi North 9.2 mph - 0.03 in   Overcast
7:53 AM 61.0 °F 55.9 °F 83% 29.93 in 8.0 mi North 6.9 mph - 0.00 in Rain Light Rain
8:53 AM 61.0 °F 55.9 °F 83% 29.94 in 9.0 mi North 5.8 mph - 0.00 in Rain Light Rain
9:53 AM 61.0 °F 55.9 °F 83% 29.93 in 10.0 mi ENE 4.6 mph - 0.03 in   Overcast
10:53 AM 63.0 °F 55.9 °F 78% 29.95 in 10.0 mi NNE 3.5 mph - N/A   Mostly Cloudy
11:53 AM 66.9 °F 55.9 °F 68% 29.93 in 10.0 mi NNE 4.6 mph - N/A   Mostly Cloudy
12:53 PM 71.1 °F 53.1 °F 53% 29.91 in 10.0 mi NNE 5.8 mph - N/A   Scattered Clouds
1:53 PM 75.9 °F 48.9 °F 38% 29.88 in 10.0 mi NNE 13.8 mph 18.4 mph N/A   Partly Cloudy
2:53 PM 75.0 °F 48.9 °F 40% 29.86 in 10.0 mi NNW 10.4 mph - N/A   Scattered Clouds
3:53 PM 75.9 °F 44.1 °F 32% 29.84 in 10.0 mi North 10.4 mph - N/A   Scattered Clouds
4:53 PM 75.9 °F 43.0 °F 31% 29.84 in 10.0 mi NNW 9.2 mph - N/A   Scattered Clouds
5:53 PM 75.9 °F 45.0 °F 33% 29.84 in 10.0 mi NNW 9.2 mph - N/A   Partly Cloudy
6:53 PM 73.0 °F 45.0 °F 37% 29.85 in 10.0 mi NNW 8.1 mph - N/A   Scattered Clouds
7:53 PM 66.9 °F 46.0 °F 47% 29.87 in 10.0 mi NNW 5.8 mph - N/A   Clear
8:53 PM 63.0 °F 48.0 °F 58% 29.89 in 10.0 mi NW 3.5 mph - N/A   Clear
9:53 PM 62.1 °F 48.0 °F 60% 29.90 in 10.0 mi North 3.5 mph - N/A   Clear
10:53 PM 57.9 °F 48.9 °F 72% 29.90 in 10.0 mi NW 3.5 mph - N/A   Clear
11:53 PM 57.0 °F 48.0 °F 72% 29.90 in 10.0 mi NNW 4.6 mph - N/A   Clear